Other Public Products
Issued by NWS Charleston, SC

Home | Current Version | Previous Version | Text Only | Print | Product List | Glossary On
Versions: 1 2 3 4 5 6 7 8 9 10 11 12 13 14 15 16 17 18 19 20 21 22 23 24 25 26 27 28 29 30 31 32 33 34 35 36 37 38 39 40 41 42 43 44 45 46 47 48 49 50
190
FPUS82 KCHS 281227
OPUCHS

TEST...KCHS/KSAV Gateway Observations...TEST
National Weather Service Charleston SC
800 AM EDT FRI APR 28 2017

NOTE: "fair" indicates few or no clouds below 12,000 feet with no
significant weather and/or obstructions to visibility.

SCZ050-WAZ558-NCZ071-TXZ119-213-PAZ071-DCZ001-FLZ074-172-MI076-
NYZ176-178-MAZ016-IL014-TNZ027-NJZ106-GAZ044-MD014-281300-

...Gateway Observations for Charleston International...

CITY           SKY/WX    TMP DP  RH WIND       PRES   REMARKS
Chas Airport   CLOUDY    73  71  93 S7        30.05R FOG
6HR MIN TEMP:  72; 6HR MAX TEMP:  76;

Seattle        CLOUDY    44  41  89 SW6       30.28R
6HR MIN TEMP:  44; 6HR MAX TEMP:  49; 6HR PCP: TRACE;

Charlotte      PTSUNNY   71  67  87 CALM      30.03R
6HR MIN TEMP:  69; 6HR MAX TEMP:  71;

Dallas DFW     MOCLDY    70  64  81 S15G24    29.54R
6HR MIN TEMP:  66; 6HR MAX TEMP:  70;

Dallas Love    CLOUDY    70  63  78 S18       29.56R
6HR MIN TEMP:  67; 6HR MAX TEMP:  70;

Philladelphia  MOSUNNY   67  63  87 S5        29.96R
6HR MIN TEMP:  64; 6HR MAX TEMP:  69; 6HR PCP:  0.02;

Wash National  MOSUNNY   68  63  84 S6        30.01R
6HR MIN TEMP:  65; 6HR MAX TEMP:  70; 6HR PCP: TRACE;

Baltimore      MOSUNNY   68  62  81 SW5       29.99R
6HR MIN TEMP:  60; 6HR MAX TEMP:  69;

Miami          MOSUNNY   81  73  76 SE8       30.04S
6HR MIN TEMP:  79; 6HR MAX TEMP:  81;

Detroit        CLOUDY    48  40  73 S8        29.97R
6HR MIN TEMP:  44; 6HR MAX TEMP:  52;

Newark         FOG       60  59  96 VRB3      29.96R VSB 1/2
6HR MIN TEMP:  56; 6HR MAX TEMP:  61; 6HR PCP: TRACE;

Laguardia      FOG       58  57  97 E5        29.96R VSB 1
6HR MIN TEMP:  55; 6HR MAX TEMP:  59; 6HR PCP: TRACE;

J F K          CLOUDY    58  58 100 CALM      29.97R FOG
6HR MIN TEMP:  55; 6HR MAX TEMP:  58; 6HR PCP: TRACE;

Boston Logan   FOG       59  59 100 S8        29.96R VSB 1
6HR MIN TEMP:  51; 6HR MAX TEMP:  58; 6HR PCP:  0.01;

Ft. Lauderdale MOSUNNY   79  73  82 SE10      30.04R
6HR MIN TEMP:  78; 6HR MAX TEMP:  79;

Chicago O`Hare PTSUNNY   42  34  73 S5        29.93R
6HR MIN TEMP:  40; 6HR MAX TEMP:  43;

Chicago Midway PTSUNNY   45  37  73 S5        29.95R
6HR MIN TEMP:  42; 6HR MAX TEMP:  45;

Houston Bush   CLOUDY    77  71  82 S10       29.64R HAZE
6HR MIN TEMP:  74; 6HR MAX TEMP:  78;

Houston Hobby  MOCLDY    75  73  93 S9        29.64R
6HR MIN TEMP:  74; 6HR MAX TEMP:  76;

Nashville      CLOUDY    55  53  93 SE3       29.94R
6HR MIN TEMP:  52; 6HR MAX TEMP:  55;

Atlanta        PTSUNNY   70  68  93 S3        30.00R FOG
6HR MIN TEMP:  67; 6HR MAX TEMP:  70; 6HR PCP: TRACE;


$$

GAZ044-118-TXZ119-213-NCZ071-DCZ001-MDZ014-506-PAZ021-071-NJZ106-
NYZ176-178-MAZ106-OHZ011-021-055-MIZ076-KYZ091-ILZ014-INZ047-
MNZ060-ONZ431-281300-

...Gateway Observations for Savannah International...

CITY           SKY/WX    TMP DP  RH WIND       PRES   REMARKS
Savannah Arpt  MOSUNNY   73  70  90 SE3       30.04R FOG
6HR MIN TEMP:  67; 6HR MAX TEMP:  75;

Atlanta        PTSUNNY   70  68  93 S3        30.00R FOG
6HR MIN TEMP:  67; 6HR MAX TEMP:  70; 6HR PCP: TRACE;

Charlotte      PTSUNNY   71  67  87 CALM      30.03R
6HR MIN TEMP:  69; 6HR MAX TEMP:  71;

Dallas DFW     MOCLDY    70  64  81 S15G24    29.54R
6HR MIN TEMP:  66; 6HR MAX TEMP:  70;

Houston Bush   CLOUDY    77  71  82 S10       29.64R HAZE
6HR MIN TEMP:  74; 6HR MAX TEMP:  78;

Wash National  MOSUNNY   68  63  84 S6        30.01R
6HR MIN TEMP:  65; 6HR MAX TEMP:  70; 6HR PCP: TRACE;

Wash Dulles    MOSUNNY   66  61  84 CALM      30.01R
6HR MIN TEMP:  57; 6HR MAX TEMP:  67;

Baltimore      MOSUNNY   68  62  81 SW5       29.99R
6HR MIN TEMP:  60; 6HR MAX TEMP:  69;

Philadelphia   MOSUNNY   67  63  87 S5        29.96R
6HR MIN TEMP:  64; 6HR MAX TEMP:  69; 6HR PCP:  0.02;

Newark         FOG       60  59  96 VRB3      29.96R VSB 1/2
6HR MIN TEMP:  56; 6HR MAX TEMP:  61; 6HR PCP: TRACE;

Laguardia      FOG       58  57  97 E5        29.96R VSB 1
6HR MIN TEMP:  55; 6HR MAX TEMP:  59; 6HR PCP: TRACE;

J F K          CLOUDY    58  58 100 CALM      29.97R FOG
6HR MIN TEMP:  55; 6HR MAX TEMP:  58; 6HR PCP: TRACE;

Boston         FOG       59  59 100 S8        29.96R VSB 1
6HR MIN TEMP:  51; 6HR MAX TEMP:  58; 6HR PCP:  0.01;

Pittsburg      MOSUNNY   50  48  93 SE3       30.04R
6HR MIN TEMP:  47; 6HR MAX TEMP:  56;

Akron          MOSUNNY   50  42  74 VRB3      30.03R
6HR MIN TEMP:  44; 6HR MAX TEMP:  50;

Cleveland      MOSUNNY   50  41  71 S8        30.03R
6HR MIN TEMP:  47; 6HR MAX TEMP:  51;

Cincinnati     CLOUDY    51  46  83 E8        30.03R
6HR MIN TEMP:  45; 6HR MAX TEMP:  51;

Columbus       MOSUNNY   49  48  94 CALM      30.04R
Detroit        CLOUDY    48  40  73 S8        29.97R
6HR MIN TEMP:  44; 6HR MAX TEMP:  52;

Chicago O`Hare PTSUNNY   42  34  73 S5        29.93R
6HR MIN TEMP:  40; 6HR MAX TEMP:  43;

Minneapolis    MOCLDY    37  28  70 NW13      29.88R WCI  29
6HR MIN TEMP:  35; 6HR MAX TEMP:  37;

Indianapolis   CLOUDY    49  44  83 NE3       29.97R
6HR MIN TEMP:  45; 6HR MAX TEMP:  49;

Toronto Canada PTSUNNY   52  43  71 SW8       29.96R

$$




USA.gov is the U.S. government's official web portal to all federal, state and local government web resources and services.